Tiempo cada hora Muñoz

Hoy, 20 Octubre, Martes

Tiempo Temperatura Precipitaciones Viento Presión Humedad
00:00 +21°C° 0 mm 1 mps 670 mmHg 96%
01:00 +20°C° 0 mm 1 mps 670 mmHg 95%
02:00 +20°C° 0 mm 1 mps 669 mmHg 95%
03:00 +20°C° 0 mm 1 mps 670 mmHg 96%
04:00 +20°C° 0 mm 1 mps 670 mmHg 96%
05:00 +20°C° 0 mm 1 mps 670 mmHg 96%
06:00 +21°C° 0 mm 1 mps 670 mmHg 94%
07:00 +22°C° 0 mm 1 mps 671 mmHg 91%
08:00 +23°C° 0 mm 1 mps 671 mmHg 89%
09:00 +24°C° 0.4 mm 1 mps 672 mmHg 85%
10:00 +25°C° 0.4 mm 1 mps 672 mmHg 81%
11:00 +25°C° 0.4 mm 2 mps 672 mmHg 77%
12:00 +25°C° 1.6 mm 2 mps 671 mmHg 81%
13:00 +25°C° 1.6 mm 2 mps 670 mmHg 84%
14:00 +24°C° 1.6 mm 2 mps 669 mmHg 88%
15:00 +23°C° 1.4 mm 1 mps 669 mmHg 90%
16:00 +23°C° 1.4 mm 1 mps 669 mmHg 92%
17:00 +22°C° 1.4 mm 1 mps 669 mmHg 95%
18:00 +22°C° 0.2 mm 1 mps 670 mmHg 95%
19:00 +22°C° 0.2 mm 1 mps 671 mmHg 96%
20:00 +21°C° 0.2 mm 1 mps 671 mmHg 96%
21:00 +21°C° 0 mm 1 mps 671 mmHg 96%
22:00 +21°C° 0 mm 1 mps 671 mmHg 96%
23:00 +21°C° 0 mm 1 mps 671 mmHg 96%

Mañana, 21 Octubre, Miércoles

Tiempo Temperatura Precipitaciones Viento Presión Humedad
00:00 +21°C° 0 mm 1 mps 671 mmHg 96%
01:00 +20°C° 0 mm 1 mps 670 mmHg 96%
02:00 +20°C° 0 mm 1 mps 670 mmHg 95%
03:00 +20°C° 0 mm 1 mps 670 mmHg 94%
04:00 +20°C° 0 mm 1 mps 670 mmHg 93%
05:00 +19°C° 0 mm 1 mps 670 mmHg 92%
06:00 +21°C° 0 mm 1 mps 671 mmHg 87%
07:00 +22°C° 0 mm 1 mps 672 mmHg 83%
08:00 +23°C° 0 mm 1 mps 673 mmHg 78%
09:00 +24°C° 0 mm 1 mps 673 mmHg 71%
10:00 +26°C° 0 mm 2 mps 673 mmHg 65%
11:00 +27°C° 0 mm 2 mps 673 mmHg 58%
12:00 +27°C° 0 mm 2 mps 672 mmHg 60%
13:00 +27°C° 0 mm 2 mps 671 mmHg 62%
14:00 +27°C° 0 mm 2 mps 671 mmHg 63%
15:00 +25°C° 0.1 mm 2 mps 670 mmHg 71%
16:00 +24°C° 0.1 mm 2 mps 670 mmHg 79%
17:00 +23°C° 0.1 mm 2 mps 670 mmHg 86%
18:00 +21°C° 0 mm 2 mps 670 mmHg 89%
19:00 +21°C° 0 mm 1 mps 671 mmHg 91%
20:00 +21°C° 0 mm 1 mps 671 mmHg 94%
21:00 +20°C° 0 mm 1 mps 671 mmHg 93%
22:00 +20°C° 0 mm 1 mps 671 mmHg 91%
23:00 +20°C° 0 mm 1 mps 671 mmHg 90%

Pasado mañana, 22 Octubre, Jueves

Tiempo Temperatura Precipitaciones Viento Presión Humedad
00:00 +20°C° 0 mm 1 mps 670 mmHg 90%
01:00 +19°C° 0 mm 1 mps 670 mmHg 89%
02:00 +19°C° 0 mm 1 mps 669 mmHg 89%
03:00 +19°C° 0 mm 1 mps 669 mmHg 88%
04:00 +19°C° 0 mm 1 mps 669 mmHg 88%
05:00 +19°C° 0 mm 1 mps 670 mmHg 87%
06:00 +20°C° 0 mm 1 mps 671 mmHg 83%
07:00 +22°C° 0 mm 1 mps 672 mmHg 79%
08:00 +23°C° 0 mm 1 mps 673 mmHg 75%
09:00 +24°C° 0 mm 2 mps 673 mmHg 69%
10:00 +26°C° 0 mm 2 mps 673 mmHg 64%
11:00 +27°C° 0 mm 2 mps 673 mmHg 58%
12:00 +27°C° 0 mm 2 mps 672 mmHg 59%
13:00 +27°C° 0 mm 2 mps 671 mmHg 60%
14:00 +27°C° 0 mm 3 mps 671 mmHg 61%
15:00 +26°C° 0 mm 2 mps 670 mmHg 69%
16:00 +24°C° 0 mm 2 mps 670 mmHg 76%
17:00 +23°C° 0 mm 2 mps 670 mmHg 83%
18:00 +21°C° 0 mm 2 mps 670 mmHg 86%
19:00 +21°C° 0 mm 1 mps 671 mmHg 90%
20:00 +20°C° 0 mm 1 mps 671 mmHg 93%
21:00 +20°C° 0 mm 1 mps 671 mmHg 90%
22:00 +20°C° 0 mm 1 mps 671 mmHg 86%
23:00 +19°C° 0 mm 1 mps 671 mmHg 83%

23 Octubre, Viernes

Tiempo Temperatura Precipitaciones Viento Presión Humedad
00:00 +19°C° 0 mm 1 mps 670 mmHg 81%
01:00 +19°C° 0 mm 1 mps 670 mmHg 79%
02:00 +19°C° 0 mm 1 mps 669 mmHg 76%
03:00 +19°C° 0 mm 1 mps 669 mmHg 75%
04:00 +19°C° 0 mm 1 mps 669 mmHg 74%
05:00 +18°C° 0 mm 1 mps 669 mmHg 74%
06:00 +20°C° 0 mm 1 mps 670 mmHg 72%
07:00 +21°C° 0 mm 1 mps 671 mmHg 71%
08:00 +23°C° 0 mm 1 mps 672 mmHg 69%
09:00 +24°C° 0 mm 2 mps 672 mmHg 65%
10:00 +26°C° 0 mm 2 mps 672 mmHg 60%
11:00 +27°C° 0 mm 2 mps 673 mmHg 55%
12:00 +27°C° 0 mm 2 mps 672 mmHg 55%
13:00 +27°C° 0 mm 3 mps 671 mmHg 55%
14:00 +27°C° 0 mm 3 mps 671 mmHg 55%
15:00 +25°C° 0 mm 2 mps 670 mmHg 64%
16:00 +24°C° 0 mm 2 mps 670 mmHg 73%
17:00 +23°C° 0 mm 2 mps 670 mmHg 82%
18:00 +21°C° 0 mm 2 mps 670 mmHg 85%
19:00 +20°C° 0 mm 2 mps 671 mmHg 88%
20:00 +20°C° 0 mm 1 mps 671 mmHg 90%
21:00 +20°C° 0 mm 1 mps 671 mmHg 89%
22:00 +20°C° 0 mm 1 mps 671 mmHg 88%
23:00 +19°C° 0 mm 1 mps 671 mmHg 86%

24 Octubre, Sábado

Tiempo Temperatura Precipitaciones Viento Presión Humedad
00:00 +19°C° 0 mm 1 mps 671 mmHg 86%
01:00 +19°C° 0 mm 1 mps 670 mmHg 86%
02:00 +19°C° 0 mm 1 mps 670 mmHg 86%
03:00 +19°C° 0 mm 1 mps 670 mmHg 85%
04:00 +19°C° 0 mm 1 mps 670 mmHg 83%
05:00 +19°C° 0 mm 1 mps 670 mmHg 82%
06:00 +20°C° 0 mm 1 mps 671 mmHg 76%
07:00 +22°C° 0 mm 1 mps 672 mmHg 70%
08:00 +24°C° 0 mm 1 mps 673 mmHg 65%
09:00 +25°C° 0 mm 1 mps 673 mmHg 62%
10:00 +26°C° 0 mm 2 mps 673 mmHg 59%
11:00 +27°C° 0 mm 2 mps 673 mmHg 56%
12:00 +27°C° 0 mm 2 mps 672 mmHg 57%
13:00 +27°C° 0 mm 2 mps 672 mmHg 58%
14:00 +27°C° 0 mm 2 mps 671 mmHg 60%
15:00 +25°C° 0 mm 2 mps 671 mmHg 66%
16:00 +24°C° 0 mm 2 mps 671 mmHg 73%
17:00 +23°C° 0 mm 1 mps 671 mmHg 80%
18:00 +22°C° 0 mm 1 mps 671 mmHg 83%
19:00 +21°C° 0 mm 1 mps 671 mmHg 86%
20:00 +20°C° 0 mm 1 mps 671 mmHg 89%
21:00 +20°C° 0 mm 1 mps 671 mmHg 84%
22:00 +20°C° 0 mm 1 mps 671 mmHg 78%
23:00 +19°C° 0 mm 1 mps 671 mmHg 73%

25 Octubre, Domingo

Tiempo Temperatura Precipitaciones Viento Presión Humedad
00:00 +19°C° 0 mm 1 mps 671 mmHg 72%
01:00 +19°C° 0 mm 1 mps 671 mmHg 70%
02:00 +19°C° 0 mm 1 mps 670 mmHg 68%
03:00 +19°C° 0 mm 1 mps 671 mmHg 69%
04:00 +19°C° 0 mm 1 mps 671 mmHg 70%
05:00 +19°C° 0 mm 1 mps 671 mmHg 71%
06:00 +21°C° 0 mm 1 mps 672 mmHg 67%
07:00 +22°C° 0 mm 1 mps 673 mmHg 63%
08:00 +22°C° 0 mm 0 mps 674 mmHg 60%
09:00 +25°C° 0 mm 1 mps 674 mmHg 56%
10:00 +26°C° 0 mm 1 mps 674 mmHg 53%
11:00 +28°C° 0 mm 2 mps 674 mmHg 50%
12:00 +28°C° 0 mm 2 mps 673 mmHg 52%
13:00 +28°C° 0 mm 2 mps 673 mmHg 54%
14:00 +28°C° 0 mm 2 mps 672 mmHg 56%
15:00 +26°C° 0.1 mm 2 mps 672 mmHg 65%
16:00 +25°C° 0.1 mm 1 mps 672 mmHg 73%
17:00 +24°C° 0.1 mm 1 mps 671 mmHg 82%
18:00 +23°C° 0 mm 1 mps 672 mmHg 86%
19:00 +22°C° 0 mm 1 mps 672 mmHg 90%
20:00 +21°C° 0 mm 1 mps 672 mmHg 95%
21:00 +21°C° 0 mm 1 mps 672 mmHg 94%
22:00 +18°C° 0 mm 0 mps 672 mmHg 94%
23:00 +18°C° 0 mm 0 mps 672 mmHg 93%

26 Octubre, Lunes

Tiempo Temperatura Precipitaciones Viento Presión Humedad
00:00 +18°C° 0 mm 0 mps 672 mmHg 93%
01:00 +18°C° 0 mm 0 mps 671 mmHg 92%
02:00 +18°C° 0 mm 0 mps 671 mmHg 91%
03:00 +18°C° 0 mm 0 mps 671 mmHg 90%
04:00 +17°C° 0 mm 0 mps 671 mmHg 90%
05:00 +17°C° 0 mm 0 mps 671 mmHg 89%
06:00 +19°C° 0 mm 0 mps 672 mmHg 83%
07:00 +21°C° 0 mm 0 mps 673 mmHg 77%
08:00 +23°C° 0 mm 0 mps 674 mmHg 71%
09:00 +26°C° 0 mm 1 mps 674 mmHg 65%
10:00 +27°C° 0 mm 1 mps 674 mmHg 60%
11:00 +29°C° 0 mm 2 mps 674 mmHg 55%
12:00 +28°C° 0.4 mm 2 mps 673 mmHg 59%
13:00 +28°C° 0.4 mm 2 mps 673 mmHg 63%
14:00 +27°C° 0.4 mm 1 mps 672 mmHg 68%
15:00 +26°C° 0.9 mm 1 mps 672 mmHg 74%
16:00 +25°C° 0.9 mm 1 mps 672 mmHg 80%
17:00 +22°C° 0.9 mm 0 mps 672 mmHg 86%
18:00 +21°C° 0.3 mm 0 mps 672 mmHg 88%
19:00 +20°C° 0.3 mm 0 mps 672 mmHg 90%
20:00 +19°C° 0.3 mm 0 mps 672 mmHg 92%
21:00 +19°C° 0 mm 0 mps 672 mmHg 93%
22:00 +19°C° 0 mm 0 mps 672 mmHg 93%
23:00 +19°C° 0 mm 0 mps 672 mmHg 94%
Mostrar más

Necesitamos Su Consentimiento

Meteoprog y nuestros Proveedores de Servicios pueden almacenar y acceder a sus datos personales como cookies, identificadores de dispositivo u otras tecnologías similares de su dispositivo y procesar dichos datos para personalizar contenido y anuncios, además de ofrecer funciones de redes sociales y analizar el tráfico.

  • Almacenar y/o acceder a información en su dispositivo

    Se puede almacenar o acceder a cookies, identificadores de dispositivo u otra información de su dispositivo para los fines anteriormente indicados.

  • Anuncios y contenido personalizados, medición de anuncios y contenido, percepciones del público, y desarrollo de productos

    Los anuncios y el contenido pueden personalizarse en base a su perfil. Se pueden añadir más datos para personalizar mejor los anuncios y contenidos. Se puede medir el rendimiento de los anuncios y contenidos. Se puede obtener la percepción sobre el público que ha visto los anuncios y contenidos. Dichos datos pueden usarse para desarrollar o mejorar la experiencia del usuario, sistemas y software.

Al hacer clic en ‘Estoy De Acuerdo’ usted permitirá el uso de las cookies, identificadores de dispositivo, balizas web u otras tecnologías similares indicadas. Su configuración puede cambiarse desde el navegador de su dispositivo.

Para ciertos fines, los intereses legítimos pueden ser considerados por encima del consentimiento. Puede leer más sobre ello en nuestra Política de Privacidad y Cookies.